This is the latest recevied weather packets stored in our database for station/object AG1T-20. If no packets are shown the sender has not sent any weather packets the latest 10 day(s).
| Time | Temp. | Humidity | Pressure | Rain* | Wind** | Luminosity | Snow |
|---|---|---|---|---|---|---|---|
| 1778104205 | 17.22° C | 36% | 1021.3 hPa | 0 mm | - | 526 W/m² | - |
| 1778103605 | 15.56° C | 27% | 1021.3 hPa | 0 mm | - | 561 W/m² | - |
| 1778103005 | 16.67° C | 31% | 1021.3 hPa | 0 mm | - | 594 W/m² | - |
| 1778102405 | 16.67° C | 32% | 1021.3 hPa | 0 mm | - | 622 W/m² | - |
| 1778101805 | 15.56° C | 33% | 1021.3 hPa | 0 mm | - | 651 W/m² | - |
| 1778101205 | 14.44° C | 29% | 1021.3 hPa | 0 mm | - | 682 W/m² | - |
| 1778100605 | 15° C | 30% | 1021.8 hPa | 0 mm | - | 709 W/m² | - |
| 1778100005 | 14.44° C | 31% | 1021.8 hPa | 0 mm | - | 734 W/m² | - |
| 1778099405 | 15° C | 31% | 1021.8 hPa | 0 mm | - | 766 W/m² | - |
| 1778098805 | 13.89° C | 34% | 1021.8 hPa | 0 mm | - | 790 W/m² | - |
| 1778098205 | 13.89° C | 31% | 1021.8 hPa | 0 mm | - | 810 W/m² | - |
| 1778097605 | 12.78° C | 33% | 1021.8 hPa | 0 mm | - | 835 W/m² | - |
| 1778097005 | 13.33° C | 32% | 1022 hPa | 0 mm | - | 851 W/m² | - |
| 1778096405 | 12.78° C | 34% | 1022 hPa | 0 mm | - | 870 W/m² | - |
| 1778095805 | 12.22° C | 33% | 1022 hPa | 0 mm | - | 888 W/m² | - |
| 1778095205 | 12.22° C | 31% | 1022 hPa | 0 mm | - | 905 W/m² | - |
| 1778094605 | 12.78° C | 34% | 1022 hPa | 0 mm | - | 920 W/m² | - |
| 1778094005 | 11.67° C | 35% | 1022 hPa | 0 mm | - | 934 W/m² | - |
| 1778093405 | 11.67° C | 37% | 1022.4 hPa | 0 mm | - | 944 W/m² | - |
| 1778092805 | 12.22° C | 39% | 1022.4 hPa | 0 mm | - | 954 W/m² | - |
| 1778092205 | 11.67° C | 37% | 1022.4 hPa | 0 mm | - | 965 W/m² | - |
| 1778091605 | 11.11° C | 37% | 1022.4 hPa | 0 mm | - | 970 W/m² | - |
| 1778091005 | 11.11° C | 38% | 1022.4 hPa | 0 mm | - | 974 W/m² | - |
| 1778090405 | 10.56° C | 36% | 1022.4 hPa | 0 mm | - | 978 W/m² | - |
| 1778089805 | 10° C | 38% | 1022.1 hPa | 0 mm | - | 984 W/m² | - |
* Rain latest hour (hover to see other rain measurements)
** Current wind speed in m/s (hover to see current wind gust speed)